GW2010 Weather Reports


Display with metric or nautical units.
time (UTC)temp
F
wind
direction
speed
MPH
gust
MPH
rain 1hr
in
rain 24hr
in
rain mn
in
humidity
%
barometer
mb
20260510173038 81 268 5.0 10.0 0.00 0.00 0.00 40 1014.5
20260510171533 80 290 2.0 9.0 0.00 0.00 0.00 39 1014.6
20260510170035 81 200 1.0 7.0 0.00 0.00 0.00 37 1014.6
20260510164553 81 242 1.0 9.0 0.00 0.00 0.00 36 1014.9
20260510163042 80 69 1.0 5.0 0.00 0.00 0.00 41 1015.0
20260510161540 80 75 5.0 9.0 0.00 0.00 0.00 44 1015.1
20260510160039 79 293 1.0 5.0 0.00 0.00 0.00 50 1015.2
20260510154533 78 268 3.0 8.0 0.00 0.00 0.00 50 1015.4
20260510153034 77 121 2.0 7.0 0.00 0.00 0.00 53 1015.7
20260510151549 77 105 2.0 6.0 0.00 0.00 0.00 57 1015.3
20260510150056 76 140 2.0 7.0 0.00 0.00 0.00 59 1015.4
20260510144609 74 0 0.0 6.0 0.00 0.00 0.00 62 1015.4
20260510143036 74 117 1.0 7.0 0.00 0.00 0.00 60 1015.3
20260510141536 72 150 2.0 8.0 0.00 0.00 0.00 62 1015.3
20260510140043 71 112 5.0 9.0 0.00 0.00 0.00 65 1015.3
20260510134549 70 141 2.0 8.0 0.00 0.00 0.00 70 1015.3
20260510133047 69 95 3.0 9.0 0.00 0.00 0.00 70 1015.1
20260510131544 69 94 3.0 5.0 0.00 0.00 0.00 74 1015.2
20260510130045 68 92 1.0 3.0 0.00 0.00 0.00 75 1014.8
20260510124541 66 0 2.0 6.0 0.00 0.00 0.00 80 1014.6
20260510123044 66 0 0.0 0.0 0.00 0.00 0.00 83 1014.6
20260510121544 65 0 0.0 0.0 0.00 0.00 0.00 85 1014.5
20260510120035 64 0 0.0 2.0 0.00 0.00 0.00 86 1014.3
20260510114600 63 0 0.0 0.0 0.00 0.00 0.00 87 1014.2
20260510113053 62 0 0.0 0.0 0.00 0.00 0.00 88 1014.0
20260510111545 62 0 0.0 0.0 0.00 0.00 0.00 88 1013.8
20260510110040 62 0 0.0 3.0 0.00 0.00 0.00 88 1013.7
20260510104547 62 0 0.0 5.0 0.00 0.00 0.00 88 1013.5
20260510103034 62 316 2.0 7.0 0.00 0.00 0.00 88 1013.2
20260510101543 62 0 0.0 0.0 0.00 0.00 0.00 88 1013.1
20260510100055 62 0 0.0 0.0 0.00 0.00 0.00 88 1012.7
20260510094550 62 0 0.0 0.0 0.00 0.00 0.00 87 1012.3
20260510093043 62 0 0.0 0.0 0.00 0.00 0.00 86 1012.1
20260510091549 62 0 0.0 0.0 0.00 0.00 0.00 86 1012.1
20260510090043 63 0 0.0 0.0 0.00 0.00 0.00 85 1011.9
20260510084542 63 0 0.0 0.0 0.00 0.00 0.00 85 1012.0
20260510083042 63 0 0.0 0.0 0.00 0.00 0.00 84 1011.8
20260510081536 64 0 0.0 0.0 0.00 0.00 0.00 84 1011.7
20260510080035 63 0 0.0 0.0 0.00 0.00 0.00 84 1011.7
20260510074545 64 0 0.0 0.0 0.00 0.00 0.00 83 1011.6
20260510073046 64 0 0.0 0.0 0.00 0.00 0.00 83 1011.5
20260510071539 64 0 0.0 0.0 0.00 0.00 0.00 82 1011.4
20260510070047 65 0 0.0 3.0 0.00 0.00 0.00 82 1011.6
20260510064549 65 328 2.0 8.0 0.00 0.00 0.00 81 1011.6
20260510063043 65 0 2.0 7.0 0.00 0.00 0.00 81 1011.6
20260510061541 66 321 2.0 7.0 0.00 0.00 0.00 80 1011.4
20260510060041 66 0 0.0 5.0 0.00 0.00 0.00 80 1011.6
20260510054534 66 0 1.0 5.0 0.00 0.00 0.00 80 1011.6
20260510053041 66 334 0.0 4.0 0.00 0.00 0.00 79 1011.8
20260510051543 66 333 1.0 6.0 0.00 0.00 0.00 79 1012.0
20260510050037 66 352 2.0 5.0 0.00 0.00 0.00 80 1011.9
20260510044537 66 0 1.0 4.0 0.00 0.00 0.00 81 1012.2
20260510043043 65 334 0.0 8.0 0.00 0.00 0.00 83 1012.0
20260510041549 64 0 0.0 0.0 0.00 0.00 0.00 87 1012.0
20260510040042 62 0 0.0 0.0 0.00 0.00 0.00 89 1012.0
20260510034549 62 0 0.0 0.0 0.00 0.00 0.00 88 1011.9
20260510033054 62 0 0.0 0.0 0.00 0.00 0.00 88 1011.9
20260510031543 62 0 0.0 0.0 0.00 0.00 0.00 88 1011.8
20260510030043 62 0 0.0 0.0 0.00 0.00 0.00 88 1011.8
20260510024543 63 0 0.0 0.0 0.00 0.00 0.00 86 1011.8
20260510023044 63 0 0.0 0.0 0.00 0.00 0.00 85 1011.7
20260510021539 64 0 0.0 0.0 0.00 0.00 0.00 84 1011.7
20260510020043 65 0 0.0 0.0 0.00 0.00 0.00 85 1011.5
20260510014541 65 0 0.0 0.0 0.00 0.00 0.00 84 1011.4
20260510013046 65 0 0.0 0.0 0.00 0.00 0.00 83 1011.2
20260510011535 66 0 0.0 0.0 0.00 0.00 0.00 82 1010.9
20260510010054 67 0 0.0 0.0 0.00 0.00 0.00 79 1010.8
20260510004539 68 0 0.0 0.0 0.00 0.00 0.00 78 1010.7
20260510003051 69 0 0.0 0.0 0.00 0.00 0.00 76 1010.7
20260510001541 70 0 0.0 0.0 0.00 0.00 0.00 75 1010.7
20260510000051 70 0 0.0 0.0 0.00 0.00 0.00 73 1010.5
20260509234546 71 0 0.0 4.0 0.00 0.00 0.00 71 1010.5
20260509233039 71 0 0.0 3.0 0.00 0.00 0.00 72 1010.1
20260509231536 72 0 0.0 6.0 0.00 0.00 0.00 71 1010.1
20260509230044 72 360 1.0 4.0 0.00 0.00 0.00 71 1009.9
20260509224541 72 196 3.0 10.0 0.00 0.00 0.00 70 1009.7
20260509223052 72 331 5.0 10.0 0.00 0.00 0.00 72 1009.9
20260509221546 73 330 4.0 11.0 0.00 0.00 0.00 69 1010.0
20260509220056 73 0 2.0 6.0 0.00 0.00 0.00 69 1009.9
20260509214550 72 236 2.0 6.0 0.00 0.00 0.00 70 1009.9
20260509213049 72 0 2.0 10.0 0.00 0.00 0.00 70 1009.9
20260509211546 72 267 4.0 8.0 0.00 0.00 0.00 72 1009.7
20260509210046 73 308 2.0 8.0 0.00 0.00 0.00 69 1009.6
20260509204555 71 263 2.0 6.0 0.00 0.00 0.00 71 1009.7
20260509203047 71 33 3.0 7.0 0.00 0.00 0.00 70 1009.8
20260509201541 70 286 6.0 12.0 0.00 0.00 0.00 70 1009.7
20260509200044 70 280 3.0 9.0 0.00 0.00 0.00 71 1010.0
20260509194545 70 316 4.0 11.0 0.00 0.00 0.00 70 1010.2
20260509193045 70 288 2.0 10.0 0.00 0.00 0.00 70 1010.3
20260509191552 70 64 4.0 11.0 0.00 0.00 0.00 69 1010.6
20260509190039 71 267 2.0 13.0 0.00 0.00 0.00 68 1010.4
20260509184538 72 216 9.0 15.0 0.00 0.00 0.00 64 1010.3
20260509183035 73 5 6.0 18.0 0.00 0.00 0.00 63 1010.3
20260509181535 72 269 6.0 16.0 0.00 0.00 0.00 62 1010.7
20260509180043 71 273 7.0 15.0 0.00 0.00 0.00 61 1011.1
20260509174552 71 292 4.0 14.0 0.00 0.00 0.00 61 1011.2